Location: Les Chemineaux
(47.3024°N, 1.5104°E)
Time: 21:30:25
(UTC+00:00)

Cosmos 1697 Rocket - Pass Details

Date: 19 May 2025
Orbit: 830 x 844 km, 71.0° (Epoch: 18 June)

Event Time Altitude Azimuth Distance (km) Brightness Sun altitude
Rises 21:17:35 0° 331° (NNW) 3,406 7.7 -14.5°
Reaches altitude 10° 21:20:03 10° 329° (NNW) 2,469 6.5 -14.7°
Maximum altitude 21:25:41 73° 247° (WSW) 886 2.8 -15.3°
Enters shadow 21:29:25 22° 166° (SSE) 1,761 3.8 -15.6°
